Tracking 19247 objects as of 25-Sep-2018
HD Live streaming from Space Station
objects crossing your sky now

BREEZE-M DEB (TANK)

Track BREEZE-M DEB (TANK) now!


NORAD ID: 33597
Int'l Code: 2009-007C
Perigee: 441.6 km
Apogee: 35,199.0 km
Inclination: 44.6 °
Period: 624.1 minutes
Semi major axis: 24191 km
RCS: 4.8079 m2 (large)
Launch date: February 11, 2009
Source: Commonwealth of Independent States (former USSR) (CIS)
Launch site: TYURATAM MISSILE AND SPACE COMPLEX (TTMTR)

Note: This is SATELLITE DEBRIS
aabbcc
Your satellite tracking list
Your tracking list is empty




NASA's NSSDC Master Catalog

Two Line Element Set (TLE):
1 33597U 09007C   18267.68718336 -.00000166 +00000-0 -34634-4 0  9998
2 33597 044.5636 197.3426 7183851 016.2357 358.0047 02.30734790080523
Source of the keplerian elements: AFSPC